Charleston, SC

2:13 PM EST on December 15, 2017 (GMT -0500)
Charleston Air Force Base-International

Weather History for KCHS - December, 2013

Change the Weather History Date:

Tuesday, December 10, 2013

  Actual Average Record
Temperature  
Mean Temperature 61 °F 52 °F  
Max Temperature 75 °F 63 °F 82 °F (1972)
Min Temperature 47 °F 41 °F 23 °F (1968)
Degree Days  
Heating Degree Days 4 13  
Month to date heating degree days 50 122  
Since 1 July heating degree days 355 414  
Cooling Degree Days 0 0  
Month to date cooling degree days 16 0  
Year to date cooling degree days 2445 2297  
Growing Degree Days 12 (Base 50)    
Moisture  
Dew Point 59 °F    
Average Humidity 77    
Maximum Humidity 93    
Minimum Humidity 60    
Precipitation  
Precipitation 0.04 in 0.10 in 1.44 in (1969)
Month to date precipitation 0.46 0.92  
Year to date precipitation 56.42 48.84  
Sea Level Pressure  
Sea Level Pressure 30.07 in    
Wind  
Wind Speed 11 mph (WSW)    
Max Wind Speed 23 mph    
Max Gust Speed 30 mph    
Visibility 8 miles    
Events Fog , Rain    
T = Trace of Precipitation, MM = Missing Value Source: NWS Daily Summary

Daily Weather History Graph

Daily Weather History Graph

Search for Another Location

Airport or City:

Trip Planner

Search our weather history database for the weather conditions in past years. The results will help you decide how hot, cold, wet, or windy it might be!

Date:

Astronomy

Dec. 10, 2013 Rise Set
Actual Time 7:12 AM EST 5:14 PM EST
Civil Twilight 6:44 AM EST 5:41 PM EST
Nautical Twilight 6:14 AM EST 6:12 PM EST
Astronomical Twilight 5:44 AM EST 6:42 PM EST
Moon 12:58 PM EST (12/10) 12:46 AM EST (12/10)
Length of Visible Light 10h 56m
Length of Day
10h 01m
First Quarter, 61% of the Moon is Illuminated
Dec 10
First Quarter
Dec 17
Full
Dec 25
Last Quarter
Jan 1
New
Jan 7
First Quarter

Hourly Weather History & Observations

Time (EST) Temp. Dew Point Humidity Pressure Visibility Wind Dir Wind Speed Gust Speed Precip Events Conditions
12:02 AM 62.6 °F 60.8 °F 94% 30.06 in 0.2 mi SSW 6.9 mph - N/A Fog Fog
12:10 AM 62.6 °F 62.6 °F 100% 30.06 in 0.2 mi South 5.8 mph - N/A Fog Fog
12:24 AM 62.6 °F 62.6 °F 100% 30.05 in 0.8 mi South 6.9 mph - N/A   Mostly Cloudy
12:28 AM 62.6 °F 62.6 °F 100% 30.05 in 2.0 mi South 6.9 mph - N/A   Scattered Clouds
12:39 AM 64.4 °F 62.6 °F 94% 30.05 in 4.0 mi South 6.9 mph - N/A   Scattered Clouds
12:56 AM 64.0 °F 62.1 °F 93% 30.05 in 5.0 mi SSW 6.9 mph - N/A   Scattered Clouds
1:24 AM 64.4 °F 62.6 °F 94% 30.04 in 5.0 mi SSW 9.2 mph - N/A   Mostly Cloudy
1:50 AM 64.4 °F 62.6 °F 94% 30.03 in 7.0 mi SSW 9.2 mph - N/A   Mostly Cloudy
1:56 AM 64.9 °F 63.0 °F 93% 30.03 in 7.0 mi SW 11.5 mph - N/A   Mostly Cloudy
2:56 AM 66.0 °F 63.0 °F 90% 30.03 in 7.0 mi SW 6.9 mph - N/A   Mostly Cloudy
3:56 AM 64.9 °F 63.0 °F 93% 30.02 in 10.0 mi SSW 8.1 mph - N/A   Scattered Clouds
4:56 AM 66.0 °F 63.0 °F 90% 30.01 in 9.0 mi SSW 10.4 mph - N/A   Scattered Clouds
5:32 AM 66.2 °F 62.6 °F 88% 30.01 in 8.0 mi SW 11.5 mph - N/A   Scattered Clouds
5:56 AM 66.0 °F 64.0 °F 93% 30.02 in 9.0 mi SW 10.4 mph - N/A   Scattered Clouds
6:12 AM 66.2 °F 64.4 °F 94% 30.02 in 9.0 mi SW 10.4 mph - N/A   Mostly Cloudy
6:56 AM 66.9 °F 64.0 °F 90% 30.02 in 7.0 mi WSW 10.4 mph - N/A   Overcast
7:56 AM 66.9 °F 64.9 °F 93% 30.02 in 7.0 mi SSW 11.5 mph - 0.00 in   Overcast
8:56 AM 69.1 °F 64.9 °F 87% 30.01 in 7.0 mi SSW 16.1 mph 21.9 mph N/A   Overcast
9:56 AM 70.0 °F 66.0 °F 87% 30.02 in 10.0 mi SW 12.7 mph - N/A   Overcast
10:56 AM 71.1 °F 66.0 °F 84% 30.01 in 10.0 mi SW 16.1 mph 23.0 mph 0.00 in   Overcast
11:35 AM 73.4 °F 64.4 °F 73% 30.01 in 10.0 mi SW 13.8 mph 24.2 mph N/A   Mostly Cloudy
11:56 AM 73.9 °F 64.9 °F 73% 30.00 in 10.0 mi SW 16.1 mph 23.0 mph N/A   Mostly Cloudy
12:29 PM 73.4 °F 64.4 °F 73% 29.98 in 10.0 mi SW 15.0 mph 25.3 mph N/A   Mostly Cloudy
12:56 PM 68.0 °F 63.0 °F 84% 30.01 in 10.0 mi WNW 19.6 mph 28.8 mph 0.04 in Rain Light Rain
1:04 PM 68.0 °F 62.6 °F 83% 30.01 in 10.0 mi WNW 15.0 mph 25.3 mph 0.00 in   Overcast
1:15 PM 68.0 °F 62.6 °F 83% 30.01 in 10.0 mi WNW 13.8 mph 20.7 mph 0.00 in   Overcast
1:56 PM 69.1 °F 62.1 °F 78% 30.01 in 10.0 mi West 12.7 mph 20.7 mph 0.00 in   Mostly Cloudy
2:56 PM 69.1 °F 55.9 °F 63% 30.03 in 10.0 mi WNW 20.7 mph 26.5 mph N/A   Mostly Cloudy
3:56 PM 66.9 °F 54.0 °F 63% 30.06 in 10.0 mi West 11.5 mph 18.4 mph N/A   Mostly Cloudy
4:56 PM 64.0 °F 50.0 °F 60% 30.10 in 10.0 mi NW 10.4 mph - N/A   Mostly Cloudy
5:56 PM 61.0 °F 48.0 °F 62% 30.14 in 10.0 mi NW 10.4 mph - N/A   Mostly Cloudy
6:56 PM 60.1 °F 46.9 °F 62% 30.20 in 10.0 mi North 12.7 mph 20.7 mph N/A   Mostly Cloudy
7:56 PM 55.9 °F 45.0 °F 67% 30.23 in 10.0 mi North 11.5 mph - N/A   Scattered Clouds
8:56 PM 54.0 °F 45.0 °F 72% 30.25 in 10.0 mi NNE 9.2 mph - N/A   Scattered Clouds
9:56 PM 50.0 °F 44.1 °F 80% 30.28 in 10.0 mi NNE 5.8 mph - N/A   Partly Cloudy
10:56 PM 48.9 °F 45.0 °F 86% 30.31 in 10.0 mi NE 5.8 mph - N/A   Partly Cloudy
11:56 PM 46.9 °F 43.0 °F 86% 30.32 in 10.0 mi NNE 4.6 mph - N/A   Partly Cloudy